{"data":{"norad_id":52552,"intl_designator":"2022-051V","name":"STARLINK-3966","alt_names":[],"object_type":"PAYLOAD","status":"ACTIVE","operator":null,"country":"US","launch_date":"2022-05-13","launch_site_code":"AFWTR","launch_vehicle":null,"mission":null,"orbit_class":"UNKNOWN","rcs_meters":null,"size_class":null,"mass_kg":null,"dimensions":null,"purposes":["comms"],"wikipedia_slug":null,"has_3d_model":false,"image_url":null,"decayed_at":null,"tle_current":{"epoch":"2026-05-24T17:07:03.121248Z","epoch_age_seconds":93736,"freshness":"FRESH","line1":"1 52552U 22051V   26144.71323057  .00000295  00000+0  36606-4 0  9994","line2":"2 52552  53.2136 147.9912 0001171  73.7030 286.4091 15.08834390222922","mean_motion":15.0883439,"eccentricity":0.0001171,"inclination_deg":53.2136,"raan_deg":147.9912,"arg_perigee_deg":73.703,"mean_anomaly_deg":286.4091,"bstar":3.6606e-5,"rev_number":22292,"period_min":95.437909524318,"perigee_km":538.95045074139,"apogee_km":540.57062234445,"semimajor_km":6917.8975365429,"source":"CELESTRAK","updated_at":"2026-05-25T13:38:17.164796Z"}}}